Hourly Data Report for October 01, 2013

All times are specified in Local Standard Time (LST). Add 1 hour to adjust for Daylight Saving Time where and when it is observed.

RANKIN INLET A
NUNAVUT

62°48'38.000" N
92°06'53.000" W
32.30 m
2303405
71083
YRT

Download Data

Hourly Data (October 2013)
Hourly Data Report for October 1, 2013
Temp Definition
°C
Dew Point Temp Definition
°C
Rel Hum Definition
%
Wind Dir Definition
10's deg

Wind Spd Definition
km/h
Visibility Definition
km
Stn Press Definition
kPa
Hmdx Definition


Wind Chill Definition


Weather Definition


TIME
00:00 Legend Double Dagger -2.0 -3.0 93 36 8 24.1 100.33   -5 Mostly Cloudy
01:00 Legend Double Dagger -2.3 -3.1 94 1 8 24.1 100.32   -5 LegendNANA
02:00 Legend Double Dagger -2.4 -3.1 95 35 8 24.1 100.32   -6 LegendNANA
03:00 Legend Double Dagger -2.7 -3.3 96 36 10 24.1 100.31   -7 Mainly Clear
04:00 Legend Double Dagger -2.5 -2.9 97 36 12 0.4 100.33   -7 Freezing Fog
05:00 Legend Double Dagger -2.9 -3.3 97 1 13 24.1 100.34   -8 LegendNANA
06:00 Legend Double Dagger -3.0 -3.4 97 36 10 9.7 100.35   -7 Mainly Clear
07:00 Legend Double Dagger -4.0 -4.6 96 35 15 3.2 100.39   -9 Fog
08:00 Legend Double Dagger -1.9 -2.3 97 2 11 24.1 100.39   -6 LegendNANA
09:00 Legend Double Dagger -0.9 -2.0 92 5 21 24.1 100.38   -7 Mostly Cloudy
10:00 Legend Double Dagger -1.0 -3.1 86 4 19 24.1 100.38   -6 LegendNANA
11:00 Legend Double Dagger -1.2 -3.3 86 5 18 16.1 100.39   -6 Snow Showers
12:00 Legend Double Dagger -1.4 -4.1 82 5 21 19.3 100.40   -7 Snow Showers
13:00 Legend Double Dagger -1.3 -4.0 82 4 24 24.1 100.42   -7 Snow Showers
14:00 Legend Double Dagger -1.4 -4.8 78 4 18 24.1 100.44   -7 LegendNANA
15:00 Legend Double Dagger -1.6 -4.8 79 2 22 24.1 100.45   -8 Cloudy
16:00 Legend Double Dagger -2.0 -5.3 78 2 18 24.1 100.47   -7 LegendNANA
17:00 Legend Double Dagger -2.0 -4.7 82 3 19 24.1 100.50   -8 LegendNANA
18:00 Legend Double Dagger -2.0 -5.0 80 4 22 24.1 100.55   -8 Cloudy
19:00 Legend Double Dagger -2.0 -5.3 78 4 21 24.1 100.55   -8 LegendNANA
20:00 Legend Double Dagger -1.8 -5.1 78 3 21 24.1 100.54   -8 LegendNANA
21:00 Legend Double Dagger -1.6 -4.8 79 3 18 24.1 100.54   -7 Cloudy
22:00 Legend Double Dagger -1.9 -5.6 76 2 23 24.1 100.56   -8 LegendNANA
23:00 Legend Double Dagger -2.3 -5.5 79 4 28 24.1 100.58   -9 LegendNANA

Notes on Data Quality.

Legend

  • E = Estimated
  • M = Missing
  • NA = Not Available
  • ‡ = Partner data that is not subject to review by the National Climate Archives
Date modified: